CAPE
0 0 0 0 0 0 0 0 0 0 0 0 0 0 0 0 0 0 0 0 0 0 0 0 0 0 0 0 0 0 0 0 0 0 802 2457 2756 2894 2900 2878 2909 2916 2963 2819 2710 2457 2109 1862 1857 1536 1528 1702 1356 1288 1226 1134 1044 752 858 798 783 762 696 587 440 354 435 438 501 504 588 805 927 938 915 864 970 1004 1031 1032 1053 1182 1228 1239 1297 1260
0 0 0 0 0 0 0 0 0 0 0 0 0 0 0 0 0 0 0 0 0 0 0 0 0 0 0 0 0 0 0 0 0 0 759 2374 2715 2762 2708 2736 2809 2774 2805 2802 2680 2515 2333 1860 1618 1721 1501 1559 1541 1348 1320 1228 1052 929 961 883 931 893 803 671 528 427 378 469 466 502 613 724 764 817 837 800 758 798 868 913 1048 1109 1208 1274 1337 1304
0 0 0 0 0 0 0 0 0 0 0 0 0 0 0 0 0 0 0 0 0 0 0 0 0 0 0 0 0 0 0 0 0 0 293 1971 2520 2550 2434 2504 2675 2632 2602 2631 2468 2278 2256 2050 1829 1579 1501 1416 1455 1396 1470 1373 1086 1033 1075 925 904 1056 751 772 659 643 655 629 604 535 612 691 796 845 860 786 815 836 870 895 938 1020 1150 1277 1324 1255
0 0 0 0 0 0 0 0 0 0 0 0 0 0 0 0 0 0 0 0 0 0 0 0 0 0 0 0 0 0 0 0 0 0 341 1628 2128 2292 2165 2221 2456 2544 2497 2389 2186 2084 2058 2005 1840 1644 1469 1534 1355 1406 1499 1290 1164 1267 1137 863 937 979 919 877 733 611 631 641 665 640 662 722 800 867 878 845 852 869 856 849 889 839 739 1198 1315 1230
0 0 0 0 0 0 0 0 0 0 0 0 0 0 0 0 0 0 0 0 0 0 0 0 0 0 0 0 0 0 0 0 5 0 211 1258 1662 1987 2016 2055 2309 2324 2406 2251 2038 2071 2028 1964 1943 1877 1516 1551 1420 1419 1354 1231 1344 1249 932 826 905 984 959 803 760 706 760 736 666 633 692 694 673 709 781 802 821 854 840 840 825 721 876 1334 1306 1242
0 0 0 0 0 0 0 0 0 0 0 0 0 0 0 0 0 0 0 0 0 0 0 0 0 0 0 0 0 0 0 0 55 12 362 1115 1494 1831 1885 2031 2281 2281 2180 2196 2018 1921 1916 1865 1880 1834 1501 1480 1457 1405 1172 1308 1245 1081 889 922 898 802 765 800 820 658 704 609 575 596 608 627 640 628 741 771 790 740 768 851 789 634 1064 1243 1255 1262
0 0 0 0 0 0 0 0 0 0 0 0 0 0 0 0 0 0 0 0 0 0 0 0 0 0 0 0 0 0 0 0 103 33 513 1040 1425 1690 1773 1919 2128 2323 2202 2177 2025 1813 1832 1835 1844 1672 1558 1429 1391 1230 1231 1474 1300 953 818 777 680 669 695 819 880 726 597 535 498 547 550 571 590 598 642 685 728 742 809 832 671 768 1217 1207 1270 1197
0 0 0 0 0 0 0 0 0 0 0 0 0 0 0 0 0 0 0 0 0 0 0 0 0 0 0 0 0 0 0 0 132 354 720 986 1366 1634 1671 1827 2015 2159 2218 2141 2053 1879 1881 1942 1995 1702 1620 1294 1187 1174 1374 1558 1373 859 653 618 610 662 687 850 877 789 642 626 591 564 532 550 587 574 678 752 815 876 908 746 678 1111 1195 1205 1301 1217
0 0 0 0 0 0 0 0 0 0 0 0 0 0 0 0 0 0 0 0 0 0 0 0 0 0 0 0 0 0 0 100 217 496 802 1008 1262 1504 1572 1679 1866 2000 2108 2161 1994 1998 2082 2104 1944 1627 1490 1244 1190 1284 1510 1616 1265 866 699 639 623 640 693 844 875 759 760 715 630 575 562 581 608 539 645 798 907 916 833 624 947 1141 1248 1412 1368 1232
0 0 0 0 0 0 0 0 0 0 0 0 0 0 0 0 0 0 0 0 0 0 0 0 0 0 0 0 0 0 0 45 316 573 827 1001 1169 1347 1433 1552 1713 1908 2043 2110 2073 2063 2121 2009 1716 1669 1454 1168 1183 1361 1464 1526 1234 912 764 692 677 683 737 862 853 786 805 757 731 730 709 671 680 694 659 798 985 873 675 728 1105 1279 1384 1398 1315 1288
0 0 0 0 0 0 0 0 0 0 0 0 0 0 0 0 0 0 0 0 0 0 0 0 0 0 0 0 0 0 0 34 496 823 811 967 1085 1224 1396 1500 1624 1883 2069 2125 2117 2100 2112 1946 1444 1505 1400 1337 1148 1187 1348 1392 1242 967 793 729 718 757 772 818 813 811 834 818 828 844 894 946 928 814 679 855 976 717 579 983 1283 1347 1356 1295 1272 1137
0 0 0 0 0 0 0 0 0 0 0 0 0 0 0 0 0 0 0 0 0 0 0 0 0 0 0 0 0 0 0 20 656 756 864 936 1038 1208 1316 1485 1659 1944 2106 2140 2164 2244 2114 1629 1279 1349 1415 1362 1234 1266 1352 1348 1172 1010 879 903 880 821 783 855 922 895 888 875 894 890 918 926 846 728 761 875 868 652 715 1088 1379 1333 1238 1253 1199 1126
0 0 0 0 0 0 0 0 0 0 0 0 0 0 0 0 0 0 0 0 0 0 0 0 0 0 0 0 0 0 0 61 521 503 836 959 1072 1167 1300 1496 1671 1989 2139 2229 2352 2260 1803 1431 1214 1180 1365 1335 1304 1395 1447 1303 1067 904 908 986 992 897 812 832 954 976 981 985 981 933 900 848 791 844 863 882 660 640 876 1201 1393 1318 1228 1205 1142 1070
0 0 0 0 0 0 0 0 0 0 0 0 0 0 0 0 0 0 0 0 0 0 0 0 0 0 0 0 0 0 0 313 749 682 855 983 1037 1152 1249 1478 1729 2063 2274 2324 2215 1932 1548 1437 1171 1013 1091 1219 1323 1411 1371 1210 1038 940 955 998 966 907 808 732 856 939 985 1021 1004 920 860 801 848 938 917 845 634 699 1070 1232 1306 1300 1277 1245 1131 1009
0 0 0 0 0 0 0 0 0 0 0 0 0 0 0 0 0 0 0 0 0 0 0 0 0 0 0 0 0 0 0 147 853 790 872 991 1085 1192 1260 1395 1718 2006 2088 2041 1912 1686 1604 1377 1186 1005 976 1123 1308 1424 1385 1234 1035 984 954 956 928 893 799 776 805 781 916 965 909 756 756 804 904 892 712 644 663 818 1241 1268 1201 1257 1213 1146 1006 920
0 0 0 0 0 0 0 0 0 0 0 0 0 0 0 0 0 0 0 0 0 0 0 0 0 0 0 0 0 0 0 376 1071 1185 1165 1187 1227 1250 1267 1326 1540 1712 1776 1722 1665 1602 1531 1383 1276 1196 1151 1207 1305 1428 1341 1205 1106 1072 1008 958 947 905 890 799 824 768 878 906 879 800 872 960 990 826 610 598 683 956 1307 1440 1327 1208 1039 920 898 866
0 0 0 0 0 0 0 0 0 0 0 0 0 0 0 0 0 0 0 0 0 0 0 0 0 0 0 0 0 0 0 511 1236 1335 1299 1264 1241 1271 1218 1287 1391 1515 1555 1553 1494 1477 1543 1481 1336 1292 1234 1271 1363 1351 1285 1194 1047 1105 1158 1104 1045 1014 953 902 886 830 915 967 932 909 1040 1102 1020 743 655 673 819 1074 1291 1489 1363 1048 870 808 791 807
0 0 0 0 0 0 0 0 0 0 0 0 0 0 0 0 0 0 0 0 0 0 0 0 0 0 0 0 0 0 0 116 1313 1379 1388 1284 1293 1346 1339 1282 1324 1443 1501 1514 1549 1635 1668 1494 1396 1306 1251 1299 1324 1336 1282 1149 1091 1154 1237 1233 1210 1103 1018 1054 1049 852 922 945 958 1000 1116 1089 858 808 789 787 961 1155 1250 1065 872 883 850 765 740 712
0 0 0 0 0 0 0 0 0 0 0 0 0 0 0 0 0 0 0 0 0 0 0 0 0 0 0 0 0 2 243 415 1107 1394 1414 1420 1353 1391 1419 1414 1393 1434 1504 1674 1786 1812 1712 1490 1408 1312 1228 1272 1357 1350 1217 1143 1148 1224 1279 1323 1320 1232 1205 1238 1095 991 1051 1022 1060 1161 1171 996 774 798 853 882 883 1045 1016 814 855 844 825 760 702 626
0 0 0 0 0 0 0 0 0 0 0 0 0 0 0 0 0 0 0 0 0 0 0 0 0 0 0 0 0 1 331 476 1163 1318 1460 1487 1454 1428 1449 1494 1547 1609 1696 1854 1904 1867 1711 1486 1436 1312 1253 1327 1481 1442 1274 1236 1230 1296 1403 1374 1376 1299 1290 1258 1128 944 987 1060 1178 1175 1066 902 877 953 986 834 874 828 727 703 758 769 726 707 649 674
0 0 0 0 0 0 0 0 0 0 0 0 0 0 0 0 0 0 0 0 0 0 0 0 0 0 0 0 0 0 189 760 1090 1246 1361 1416 1462 1506 1519 1539 1688 1847 1948 1976 1960 1893 1672 1435 1346 1273 1317 1312 1446 1500 1396 1314 1312 1391 1477 1478 1421 1321 1367 1355 1183 1186 1071 1159 1179 1168 1060 927 935 1046 998 750 726 751 791 814 772 717 688 633 612 668
0 0 0 0 0 0 0 0 0 0 0 0 0 0 0 0 0 0 0 0 0 0 0 0 0 0 0 0 0 0 67 736 1055 1085 1180 1306 1369 1460 1553 1611 1790 1994 2036 2003 2018 1887 1615 1423 1375 1324 1384 1292 1351 1372 1382 1283 1402 1446 1494 1519 1480 1367 1261 1386 1311 1271 1259 1229 1210 1195 1128 1036 986 962 893 653 705 757 762 739 665 631 594 609 646 638
0 0 0 0 0 0 0 0 0 0 0 0 0 0 0 0 0 0 0 0 0 0 0 0 0 0 0 725 959 984 68 405 1010 1094 1037 1133 1268 1380 1508 1652 1856 1956 1953 1974 1942 1743 1540 1452 1417 1399 1360 1389 1431 1436 1399 1407 1465 1473 1460 1486 1464 1327 1149 1014 1086 1296 1315 1208 1166 1164 1132 1047 964 961 881 667 653 631 607 622 616 574 598 637 593 541
0 0 0 0 0 0 0 0 0 0 0 0 0 0 0 0 0 0 0 0 0 0 0 0 0 0 38 929 1125 1258 1042 280 729 1016 1030 1049 1176 1310 1405 1619 1834 1931 1897 1869 1790 1666 1489 1449 1429 1378 1402 1536 1549 1536 1487 1469 1479 1484 1474 1455 1357 1054 911 871 894 1144 1342 1235 1195 1120 1011 901 883 890 804 632 609 570 549 540 564 538 536 515 519 323
0 0 0 0 0 0 0 0 0 0 0 0 0 0 0 0 0 0 0 0 0 0 0 0 0 0 220 975 1366 998 777 626 486 872 953 964 1115 1266 1426 1540 1740 1828 1832 1798 1700 1535 1366 1334 1354 1370 1391 1539 1602 1556 1519 1502 1480 1477 1455 1399 1065 1045 809 984 941 1139 1380 1252 1248 1088 918 757 664 603 551 552 552 549 506 501 490 514 540 491 247 135
1 0 0 0 0 0 0 0 0 0 0 0 0 0 0 0 0 0 0 0 0 0 0 0 0 0 419 950 1372 1040 600 470 532 733 904 927 1002 1232 1438 1546 1611 1706 1737 1696 1616 1426 1438 1432 1404 1425 1520 1591 1628 1570 1539 1523 1504 1491 1468 1426 1335 1056 912 1003 916 1313 1337 1294 1265 1046 853 669 605 586 570 575 548 511 491 494 543 588 458 207 137 0
3 0 2 0 0 0 0 0 0 0 0 0 0 0 0 0 0 0 0 0 0 0 0 0 0 130 205 909 1008 1160 818 688 741 795 878 944 979 1144 1430 1598 1658 1699 1716 1724 1609 1548 1523 1463 1486 1559 1585 1624 1656 1673 1554 1546 1523 1521 1528 1531 1439 1280 880 755 1022 1266 1312 1258 1168 884 654 613 612 617 607 574 561 517 522 578 620 425 250 209 156 0
5 3 4 1 0 0 0 0 0 0 0 0 0 0 0 0 0 0 0 0 0 0 0 12 146 311 312 815 1182 1258 1068 859 871 878 904 931 966 1169 1347 1518 1618 1744 1820 1673 1544 1625 1597 1526 1533 1624 1664 1664 1656 1668 1654 1583 1549 1519 1550 1504 1372 1312 1196 933 1134 1255 1290 1250 1031 755 616 616 613 603 592 595 557 590 637 640 438 290 244 207 0 0
4 5 5 1 1 60 0 0 0 0 0 0 0 0 0 0 0 0 0 0 0 0 0 36 321 455 536 539 850 1216 1132 1037 980 996 1002 1027 1030 1187 1304 1406 1505 1494 1457 1430 1560 1676 1649 1622 1598 1662 1685 1732 1672 1628 1681 1587 1582 1550 1565 1509 1407 1271 1163 1065 1212 1235 1245 1180 993 777 631 604 583 560 581 586 658 711 721 591 412 341 148 0 0 1
2 6 4 0 0 1 0 1 0 0 0 0 0 0 0 0 0 0 0 0 0 0 0 131 286 248 115 337 596 1043 1207 1219 1182 1170 1129 1082 1103 1200 1310 1365 1427 1462 1480 1513 1646 1745 1738 1687 1671 1646 1613 1647 1740 1606 1564 1536 1569 1601 1555 1448 1292 1234 1080 1122 1192 1163 1194 1093 860 647 615 579 560 565 649 713 712 718 713 544 441 344 0 0 0 0
1 14 4 1 1 1 0 0 0 0 0 8 0 0 0 0 0 0 0 0 0 0 0 110 180 122 26 302 735 1138 1320 1300 1329 1397 1256 1200 1268 1387 1397 1377 1381 1413 1565 1677 1734 1814 1796 1695 1652 1619 1573 1569 1677 1633 1508 1565 1610 1539 1415 1289 1204 1197 1095 1098 1088 1120 1122 906 703 693 651 621 602 628 698 750 701 745 703 512 417 160 0 0 0 0
8 12 1 0 0 0 0 0 0 40 50 102 106 103 18 0 0 0 0 0 0 1 5 45 126 40 39 760 1024 1360 1393 1353 1522 1561 1503 1424 1467 1575 1554 1507 1464 1514 1703 1836 1835 1908 1873 1747 1659 1624 1596 1623 1724 1754 1630 1602 1615 1553 1404 1214 1114 1107 1049 1035 1033 1145 1007 761 745 762 720 666 690 727 746 697 687 768 609 415 344 116 1 0 0 0
12 15 2 0 0 0 0 0 1 1 0 0 97 94 140 0 0 0 62 3 0 48 58 61 65 60 333 966 1309 1354 1467 1512 1591 1682 1682 1638 1625 1660 1666 1640 1595 1525 1683 1893 1900 1903 1828 1697 1650 1645 1615 1671 1698 1776 1758 1631 1560 1459 1304 1142 1061 1071 996 988 1101 1058 768 777 766 750 672 672 729 771 760 748 815 750 497 346 251 179 157 0 0 0
0 12 2 3 1 2 0 1 1 0 3 152 66 175 154 81 0 89 135 164 106 54 30 12 0 466 929 1278 1595 1435 1474 1580 1683 1800 1753 1784 1744 1673 1568 1574 1513 1604 1624 1771 1911 1946 1800 1658 1664 1674 1616 1599 1628 1659 1668 1600 1531 1370 1178 1075 1021 966 950 977 929 798 755 746 720 652 584 611 600 632 671 710 720 632 454 305 227 199 69 0 0 0
0 9 3 7 4 1 0 0 0 9 241 126 174 164 164 244 246 308 251 254 222 153 108 78 115 649 1088 1272 1474 1500 1376 1532 1622 1878 1890 1879 1871 1793 1795 1744 1679 1647 1670 1671 1686 1714 1740 1707 1643 1605 1533 1487 1528 1590 1627 1511 1380 1212 1099 1039 1005 958 921 897 714 750 829 830 701 598 555 549 544 520 541 544 514 484 343 259 213 49 1 0 0 0
6 13 25 96 65 6 0 0 1 20 152 98 61 193 196 130 94 95 148 347 320 332 267 262 219 560 1086 1249 1507 1658 1531 1688 1857 1936 2016 2023 1982 2019 1931 1950 1880 1797 1823 1805 1714 1605 1553 1535 1535 1485 1479 1395 1328 1388 1469 1445 1355 1187 1099 1052 1006 926 828 739 770 832 910 838 626 474 391 366 411 482 472 362 308 278 232 244 61 9 0 0 0 0
0 7 10 7 12 10 0 0 8 73 82 105 60 55 220 153 105 149 227 191 357 361 337 332 306 586 1143 1451 1667 1727 1791 1842 1899 2073 2158 2261 2235 2224 2193 2152 2107 2081 1997 1961 1876 1762 1651 1555 1627 1768 1732 1591 1426 1330 1390 1412 1377 1206 1100 1115 1085 962 838 800 881 930 872 745 551 479 395 484 516 444 333 294 240 5 261 220 16 3 0 0 2 3
0 2 8 13 15 8 1 14 33 47 98 74 81 56 151 138 114 88 11 197 398 415 462 373 512 801 1333 1657 1834 1883 2116 1979 2143 2053 2073 2258 2276 2240 2120 2114 2102 2084 2056 2012 1917 1836 1534 1516 1810 1902 1845 1774 1634 1571 1496 1453 1407 1236 1122 1120 1099 972 827 806 881 889 780 684 743 697 573 426 327 326 360 286 218 299 273 30 18 0 0 0 6 4
0 1 10 11 6 0 0 1 24 13 24 36 166 125 284 109 0 141 30 142 212 510 529 614 692 1058 1412 1523 1686 1806 1651 1608 1551 1461 1393 1827 1858 1758 1730 1616 1817 1906 1976 1951 1953 1898 1602 1142 1345 1406 1647 1765 1806 1630 1509 1397 1268 1078 1053 1077 1051 948 833 800 858 879 910 808 699 679 636 518 401 258 164 231 341 295 135 32 2 1 12 10 2 1
5 9 10 7 0 0 7 6 3 11 87 222 198 190 102 303 52 38 0 138 196 602 744 764 789 1120 1284 1317 1469 1502 1219 875 762 904 1399 1588 1475 1379 1390 1341 1286 1370 1448 1479 1487 1542 1529 1304 1138 1146 1425 1586 1559 1425 1260 1140 1016 888 905 925 954 910 798 826 901 968 858 593 605 561 398 270 219 92 57 314 303 58 87 89 44 14 1 0 0 0
0 6 6 4 0 0 0 5 19 84 172 264 185 150 127 137 81 0 5 543 287 396 826 886 868 940 1267 1507 1568 1510 948 524 312 765 1323 1839 1763 1738 1717 1553 1476 1438 1499 1471 1428 1434 1364 1259 1196 1100 1225 1285 1328 1191 1041 952 895 847 819 848 830 864 753 853 918 631 616 582 538 453 400 271 234 224 110 111 95 15 55 8 0 0 0 0 0 0
0 0 0 0 0 0 0 0 88 259 146 97 180 35 79 51 0 4 360 344 483 559 721 992 1018 1012 1315 1523 1613 1455 1081 1020 540 625 1372 1910 1968 1915 1760 1656 1492 1407 1377 1319 1220 1077 1126 1247 1239 1096 1100 1158 1103 1016 938 902 925 924 893 884 817 660 693 761 592 646 626 266 483 375 370 341 318 294 294 247 157 95 106 30 12 0 0 0 0 0
0 0 3 46 0 0 0 31 24 69 217 231 161 133 89 177 190 207 269 358 477 445 540 894 1135 1100 1174 1371 1361 1209 989 889 674 981 1560 1852 1877 1824 1710 1549 1413 1332 1137 835 760 861 864 865 896 1012 984 1016 1057 1055 1062 987 943 847 790 719 698 458 476 644 493 604 502 217 276 434 432 407 371 348 261 101 4 13 66 40 36 2 0 0 0 0
0 0 0 0 64 3 1 5 115 390 189 191 113 140 334 279 230 298 298 315 396 429 567 556 1127 882 806 986 1079 1101 1008 822 970 1258 1705 1697 1614 1545 1513 1432 1300 1117 1003 824 759 827 879 941 830 803 833 882 956 1016 1057 1042 912 727 655 684 589 521 387 527 562 204 179 154 134 273 265 337 282 164 1 3 3 2 17 10 26 31 4 0 0 0
0 161 157 29 16 22 3 194 226 227 279 260 275 253 242 271 374 382 338 282 413 468 579 628 685 672 714 938 947 930 852 786 829 1233 1353 1455 1478 1418 1370 1338 1202 1058 935 779 675 786 886 958 976 896 832 822 879 872 877 886 720 579 620 563 468 213 202 450 386 84 169 208 262 373 373 364 116 2 3 3 3 8 5 16 39 33 0 0 0 0
31 12 0 23 34 216 217 206 208 190 233 222 237 274 329 364 438 392 327 305 252 430 502 582 607 717 633 689 781 860 892 857 780 979 1080 1229 1309 1226 1170 1208 1162 1032 862 642 513 575 709 744 795 834 831 784 714 679 691 721 659 485 424 357 372 142 80 300 190 77 128 120 171 225 284 291 119 2 3 3 6 59 47 61 60 11 0 0 0 0
24 0 27 152 38 70 115 155 204 197 182 198 223 297 320 319 312 269 266 287 268 265 344 436 520 534 563 640 501 548 618 756 789 794 928 922 960 985 1031 1075 1004 879 763 602 453 504 725 649 625 613 587 601 578 539 511 553 560 267 132 358 154 158 17 76 204 32 254 240 114 173 216 131 60 14 4 10 8 5 23 62 10 3 4 0 0 0
18 4 84 0 28 121 175 139 158 136 84 157 168 182 188 190 184 200 244 293 306 271 246 258 325 387 445 453 506 488 558 476 637 643 743 808 846 953 1047 1020 911 783 662 607 536 522 564 490 495 507 499 519 545 374 179 278 54 51 113 150 164 70 44 104 167 160 147 113 137 134 88 77 64 32 20 26 23 20 7 4 16 17 8 0 0 0
181 38 19 0 1 114 65 78 123 125 136 138 142 127 146 140 125 143 148 161 196 221 268 292 249 183 180 229 323 405 384 265 337 493 565 560 709 937 928 830 799 676 562 565 592 605 583 544 495 523 543 478 425 408 262 112 88 120 146 127 81 85 83 178 181 171 176 209 150 65 88 73 4 5 5 58 54 36 32 16 20 0 0 0 0 0
26 12 0 0 0 38 78 100 112 65 68 90 57 2 55 0 0 0 38 77 0 0 85 194 267 259 259 144 0 260 301 339 322 373 471 534 673 818 762 634 660 652 548 426 436 457 588 607 609 565 515 408 371 376 189 82 122 86 106 132 102 168 164 158 184 208 164 202 197 82 32 2 2 4 7 60 64 48 20 1 0 0 0 0 0 0
4 0 0 0 0 0 0 6 101 0 7 6 0 0 0 0 0 0 0 0 0 0 0 0 29 250 287 148 0 132 198 222 303 276 364 560 671 665 530 475 496 513 507 404 256 286 450 429 313 183 55 67 116 198 170 130 92 146 161 178 197 215 242 245 251 156 293 108 94 4 2 2 1 4 6 7 25 32 21 0 0 0 0 0 0 0
Wind_Speed
nan nan nan nan nan nan nan nan nan nan nan nan nan nan nan nan nan nan nan nan nan nan nan nan nan nan nan nan nan nan nan nan nan nan 28 32 36 38 39 37 37 34 34 34 32 29 27 29 30 33 31 29 29 30 32 36 26 28 35 35 31 29 28 27 28 27 28 30 32 32 27 24 23 24 23 23 21 18 15 16 16 16 18 16 16 18
nan nan nan nan nan nan nan nan nan nan nan nan nan nan nan nan nan nan nan nan nan nan nan nan nan nan nan nan nan nan nan nan nan nan 30 31 34 38 38 37 37 38 35 35 33 31 30 25 26 29 27 29 32 28 34 35 31 21 22 23 27 26 25 26 25 26 26 27 29 30 27 25 24 24 24 23 19 17 16 16 15 16 16 14 14 15
nan nan nan nan nan nan nan nan nan nan nan nan nan nan nan nan nan nan nan nan nan nan nan nan nan nan nan nan nan nan nan nan nan nan 29 32 35 39 38 39 40 37 34 33 33 33 30 25 25 25 25 27 30 32 33 34 30 30 30 29 29 22 23 24 24 25 25 28 33 32 28 25 24 22 23 23 21 18 16 15 15 14 15 13 13 14
nan nan nan nan nan nan nan nan nan nan nan nan nan nan nan nan nan nan nan nan nan nan nan nan nan nan nan nan nan nan nan nan nan nan 31 31 34 35 35 35 36 36 34 31 31 32 28 25 24 23 23 24 25 28 29 32 34 30 29 31 29 24 23 24 23 24 24 27 34 34 30 27 24 21 23 24 21 17 15 14 13 14 13 13 13 14
nan nan nan nan nan nan nan nan nan nan nan nan nan nan nan nan nan nan nan nan nan nan nan nan nan nan nan nan nan nan nan nan nan nan 33 31 30 30 33 35 33 34 33 30 28 27 27 24 22 23 22 21 22 25 28 29 31 28 31 29 27 26 26 26 25 26 26 27 33 34 33 29 26 25 23 22 19 16 13 14 13 11 12 11 12 13
nan nan nan nan nan nan nan nan nan nan nan nan nan nan nan nan nan nan nan nan nan nan nan nan nan nan nan nan nan nan nan nan nan nan 30 32 34 31 31 30 29 32 31 29 26 25 26 25 21 17 17 17 18 23 26 27 26 23 27 29 27 26 26 27 26 27 27 26 29 32 31 26 22 21 20 17 16 15 14 13 14 13 12 11 13 13
nan nan nan nan nan nan nan nan nan nan nan nan nan nan nan nan nan nan nan nan nan nan nan nan nan nan nan nan nan nan nan nan 35 nan 30 32 31 27 27 29 29 30 28 25 25 24 24 21 19 15 13 15 17 20 24 25 25 21 23 26 27 24 23 24 25 25 26 25 25 28 28 25 21 20 18 18 18 17 17 17 16 13 13 15 15 14
nan nan nan nan nan nan nan nan nan nan nan nan nan nan nan nan nan nan nan nan nan nan nan nan nan nan nan nan nan nan nan nan 36 33 30 30 29 25 24 25 25 23 24 26 23 21 21 19 15 15 15 16 18 19 21 23 24 24 22 24 24 22 22 20 22 23 24 24 24 26 28 28 25 21 20 19 18 19 19 18 17 17 18 20 19 16
nan nan nan nan nan nan nan nan nan nan nan nan nan nan nan nan nan nan nan nan nan nan nan nan nan nan nan nan nan nan nan nan 34 29 26 28 26 23 22 22 20 19 22 24 21 18 18 13 11 13 16 16 16 18 21 23 23 21 18 19 20 20 21 21 21 24 26 28 26 26 27 28 27 27 25 21 20 21 21 21 19 19 23 24 20 17
nan nan nan nan nan nan nan nan nan nan nan nan nan nan nan nan nan nan nan nan nan nan nan nan nan nan nan nan nan nan nan nan 31 23 22 25 25 22 21 22 19 19 20 16 15 16 13 9 10 13 14 15 16 18 19 20 21 20 19 17 18 19 20 21 22 25 29 29 27 26 24 26 28 28 26 22 22 22 22 22 20 22 25 24 21 19
nan nan nan nan nan nan nan nan nan nan nan nan nan nan nan nan nan nan nan nan nan nan nan nan nan nan nan nan nan nan nan nan 33 30 29 30 26 22 21 22 19 18 17 14 14 13 10 7 9 11 13 13 15 16 19 20 19 19 18 18 18 19 21 22 23 24 27 26 23 22 22 24 26 25 24 23 23 24 23 22 22 23 24 21 20 19
nan nan nan nan nan nan nan nan nan nan nan nan nan nan nan nan nan nan nan nan nan nan nan nan nan nan nan nan nan nan nan nan 27 22 21 22 21 21 21 20 18 16 15 15 14 12 9 6 7 9 10 12 14 16 19 18 18 17 16 16 17 19 22 24 24 24 25 24 21 20 20 22 23 23 22 22 23 23 22 22 23 23 23 21 19 18
nan nan nan nan nan nan nan nan nan nan nan nan nan nan nan nan nan nan nan nan nan nan nan nan nan nan nan nan nan nan nan nan 23 23 21 19 18 19 20 19 18 16 16 15 13 12 8 6 7 9 10 12 13 15 18 18 17 16 15 14 15 16 20 23 23 21 22 22 20 19 19 21 22 22 22 23 24 22 21 21 22 23 22 20 19 18
nan nan nan nan nan nan nan nan nan nan nan nan nan nan nan nan nan nan nan nan nan nan nan nan nan nan nan nan nan nan nan 21 21 25 23 20 17 17 18 20 19 17 15 14 11 7 6 6 6 8 10 10 10 12 16 17 16 15 13 12 12 11 13 19 20 19 20 21 20 19 18 19 21 22 23 23 24 22 20 20 21 22 20 19 18 19
nan nan nan nan nan nan nan nan nan nan nan nan nan nan nan nan nan nan nan nan nan nan nan nan nan nan nan nan nan nan nan 21 24 32 31 26 22 19 22 24 22 19 14 11 6 3 5 7 9 10 11 10 8 10 13 13 13 13 12 11 11 10 9 13 15 17 19 20 19 19 19 20 21 22 24 25 24 22 21 20 23 22 20 20 19 20
nan nan nan nan nan nan nan nan nan nan nan nan nan nan nan nan nan nan nan nan nan nan nan nan nan nan nan nan nan nan nan 24 32 34 31 27 27 26 23 20 18 14 12 9 3 0 3 6 9 10 11 11 9 10 11 12 12 10 10 10 10 10 9 10 14 16 18 19 19 19 20 21 22 24 26 27 25 23 21 22 24 23 21 20 21 21
nan nan nan nan nan nan nan nan nan nan nan nan nan nan nan nan nan nan nan nan nan nan nan nan nan nan nan nan nan nan nan 26 30 29 26 24 26 24 19 16 15 12 10 7 2 1 5 7 9 9 11 13 11 11 11 10 10 8 8 9 10 11 10 9 11 15 17 18 19 19 21 22 23 24 24 24 24 23 22 23 23 22 21 22 22 21
nan nan nan nan nan nan nan nan nan nan nan nan nan nan nan nan nan nan nan nan nan nan nan nan nan nan nan nan nan nan nan 25 25 24 21 20 22 20 16 14 12 11 9 7 6 5 5 7 9 11 12 14 14 14 13 11 10 7 6 8 10 12 12 9 10 13 15 17 19 20 21 22 23 24 24 24 24 24 24 22 22 22 23 22 22 23
nan nan nan nan nan nan nan nan nan nan nan nan nan nan nan nan nan nan nan nan nan nan nan nan nan nan nan nan nan nan 26 22 23 22 18 12 12 12 12 14 16 17 16 9 3 3 4 7 10 13 16 17 17 17 15 14 12 9 8 8 9 11 12 13 12 14 17 19 20 20 20 21 23 23 24 24 25 25 25 22 21 23 24 24 24 24
nan nan nan nan nan nan nan nan nan nan nan nan nan nan nan nan nan nan nan nan nan nan nan nan nan nan nan nan nan nan 21 21 20 17 9 6 7 11 13 14 13 11 10 7 3 3 5 10 14 15 18 18 17 16 15 14 13 11 10 10 11 13 14 14 14 18 20 20 20 21 22 22 22 22 23 23 24 25 25 22 22 23 25 24 24 23
nan nan nan nan nan nan nan nan nan nan nan nan nan nan nan nan nan nan nan nan nan nan nan nan nan nan nan nan nan nan 22 18 15 9 9 8 8 11 13 14 14 13 12 7 3 4 9 15 17 18 19 20 20 18 16 14 13 12 12 12 13 14 13 13 14 16 17 19 20 21 22 22 23 23 22 24 25 26 24 22 23 25 24 24 22 21
nan nan nan nan nan nan nan nan nan nan nan nan nan nan nan nan nan nan nan nan nan nan nan nan nan nan nan nan nan nan nan 21 14 11 10 11 11 10 12 13 15 13 11 10 9 10 15 19 18 20 21 20 20 18 16 15 15 13 14 13 13 13 11 13 13 15 19 21 20 22 23 24 23 23 23 24 25 24 22 21 23 23 23 23 20 20
nan nan nan nan nan nan nan nan nan nan nan nan nan nan nan nan nan nan nan nan nan nan nan nan nan nan nan 37 36 32 nan 23 17 15 13 13 13 11 12 16 20 22 20 18 14 14 15 16 16 18 20 20 19 17 16 16 15 15 15 15 15 15 14 16 17 17 18 20 21 24 25 25 24 23 23 23 22 21 19 18 20 21 23 21 20 20
nan nan nan nan nan nan nan nan nan nan nan nan nan nan nan nan nan nan nan nan nan nan nan nan nan nan nan 37 34 31 31 30 25 20 17 18 16 14 16 19 22 24 23 20 17 14 12 11 15 18 19 19 18 17 17 17 17 18 18 21 27 30 29 25 19 18 19 21 23 25 25 24 22 22 20 20 19 19 16 16 18 20 21 21 20 22
nan nan nan nan nan nan nan nan nan nan nan nan nan nan nan nan nan nan nan nan nan nan nan nan nan nan 36 37 34 34 34 32 24 20 24 24 24 21 20 22 25 27 26 22 19 17 14 12 14 17 19 18 17 17 17 18 20 20 22 28 27 23 21 18 16 17 20 22 23 23 23 22 20 19 18 18 18 18 17 18 19 21 22 23 22 21
nan nan nan nan nan nan nan nan nan nan nan nan nan nan nan nan nan nan nan nan nan nan nan nan nan nan 28 35 36 37 38 37 33 31 32 30 26 24 24 22 24 25 24 23 22 23 22 20 19 20 20 20 18 17 18 19 21 22 24 23 20 18 20 18 17 18 21 21 22 21 21 20 19 19 18 18 18 18 18 20 22 23 22 22 22 nan
nan nan nan nan nan nan nan nan nan nan nan nan nan nan nan nan nan nan nan nan nan nan nan nan nan 25 27 29 30 29 30 32 35 35 34 35 32 29 27 25 23 24 25 25 25 26 28 27 26 24 24 24 23 21 21 21 23 24 23 21 18 18 20 20 20 22 22 21 21 20 19 19 19 19 19 19 18 17 18 20 21 22 22 21 21 nan
nan nan nan nan nan nan nan nan nan nan nan nan nan nan nan nan nan nan nan nan nan nan nan nan 21 21 19 22 22 22 20 20 25 29 31 35 35 31 28 28 28 29 28 27 27 28 29 30 30 28 26 27 28 28 27 25 24 25 24 21 19 20 22 22 24 25 24 22 20 20 19 18 18 19 19 18 17 17 17 18 18 19 20 20 nan nan
nan nan nan nan nan nan nan nan nan nan nan nan nan nan nan nan nan nan nan nan nan nan nan nan 22 22 23 21 21 24 23 19 21 23 26 32 39 38 33 30 29 28 28 28 28 28 29 30 29 28 28 29 31 34 33 29 25 25 25 23 22 23 25 27 28 27 25 22 21 19 18 18 17 17 17 16 15 15 16 16 17 18 19 nan nan nan
nan nan nan nan nan nan nan nan nan nan nan nan nan nan nan nan nan nan nan nan nan nan nan 24 21 22 22 23 23 23 23 22 22 24 27 31 34 36 35 34 33 31 28 27 27 27 27 28 28 28 28 28 26 27 28 27 26 24 24 24 25 25 27 29 29 28 25 23 21 19 19 19 17 16 15 15 15 15 15 16 17 18 nan nan nan nan
nan nan nan nan nan nan nan nan nan nan nan nan nan nan nan nan nan nan nan nan nan nan nan 31 27 22 nan 20 20 24 26 27 26 24 26 29 32 35 36 35 34 31 29 28 28 28 28 28 28 28 28 28 25 24 24 22 23 25 25 24 25 26 28 31 30 28 27 24 21 20 20 20 19 18 17 16 16 15 15 16 17 18 nan nan nan nan
nan nan nan nan nan nan nan nan nan nan nan 39 41 45 nan nan nan nan nan nan nan nan nan nan 31 nan nan 21 23 28 26 24 25 25 27 28 30 33 35 34 33 32 30 29 29 28 28 26 24 25 27 29 28 27 26 25 26 26 24 23 26 27 29 31 31 29 27 25 22 22 22 21 22 21 19 18 16 16 16 17 18 18 nan nan nan nan
nan nan nan nan nan nan nan nan nan nan nan nan nan nan 37 nan nan nan nan nan nan nan nan nan nan nan 23 22 26 28 27 25 24 24 28 31 30 32 34 35 35 31 29 27 26 24 23 21 20 23 26 27 27 27 27 28 28 26 24 24 27 29 29 31 31 30 27 24 23 23 23 22 22 21 20 19 18 17 18 18 18 18 19 nan nan nan
nan nan nan nan nan nan nan nan nan nan nan 36 nan 35 33 nan nan nan 35 34 35 nan nan nan nan 35 31 27 23 22 24 24 23 24 29 26 31 33 32 29 28 26 26 25 20 15 14 16 18 20 21 21 22 25 28 29 29 28 27 28 31 31 30 31 31 30 26 24 23 23 22 21 21 20 20 20 20 19 20 20 20 20 nan nan nan nan
nan nan nan nan nan nan nan nan nan nan 34 37 41 39 36 34 39 38 33 35 36 37 40 nan 37 33 29 30 29 27 26 28 28 25 25 28 32 34 32 31 29 25 22 21 17 13 13 15 17 20 23 22 23 28 30 31 32 32 31 31 32 32 31 30 31 28 24 23 22 22 20 19 19 19 19 20 20 21 21 22 22 nan nan nan nan nan
nan nan nan nan nan nan nan nan nan nan 37 nan nan 43 43 41 nan nan 38 36 36 35 33 32 31 36 37 34 34 31 30 29 30 29 26 24 26 30 31 28 26 23 20 17 16 14 15 21 25 28 25 22 22 24 26 29 31 33 33 33 35 34 33 31 29 25 22 23 22 21 19 19 19 18 19 21 23 24 24 24 nan nan nan nan nan nan
nan nan nan nan nan nan nan nan nan nan nan 43 nan nan 47 43 42 41 37 36 35 34 35 31 32 36 36 33 35 33 30 30 31 28 27 26 24 27 29 29 27 24 23 20 20 26 34 39 36 28 24 21 22 23 23 26 29 31 32 32 33 33 32 29 26 23 21 22 22 23 22 21 20 19 19 22 25 nan 27 27 nan nan nan nan nan nan
nan nan nan nan nan nan nan nan nan nan nan nan nan nan 40 40 40 nan nan 35 35 38 36 35 33 34 34 34 35 33 31 35 29 26 27 30 28 27 28 30 29 27 26 25 28 32 34 28 22 22 23 22 22 24 26 26 28 28 28 30 31 31 28 25 23 21 21 21 23 25 24 22 20 19 19 21 23 24 25 nan nan nan nan nan nan nan
nan nan nan nan nan nan nan nan nan nan nan nan 38 39 38 38 nan 41 nan 38 35 41 41 39 36 35 32 32 33 33 36 29 22 23 30 32 31 28 28 27 28 28 28 26 28 28 23 18 20 22 24 25 25 25 23 25 28 28 28 29 29 27 25 24 22 21 22 25 27 26 24 23 21 18 18 19 19 19 21 nan nan nan nan nan nan nan
nan nan nan nan nan nan nan nan nan nan nan 34 35 36 37 41 nan nan nan 37 36 42 41 42 39 37 34 32 33 36 35 28 24 30 34 35 33 31 28 27 28 29 30 30 31 29 23 18 20 21 20 20 22 24 24 25 27 27 26 24 23 23 27 29 28 29 30 29 26 25 26 25 24 nan nan 24 22 nan nan nan nan nan nan nan nan nan
nan nan nan nan nan nan nan nan nan nan 28 29 31 36 40 39 nan nan nan 36 37 39 40 42 38 35 32 33 33 33 28 31 31 32 35 35 35 33 31 29 28 27 27 28 30 32 29 25 22 18 15 19 23 25 26 26 27 28 27 27 27 30 32 33 32 31 33 31 28 26 26 25 24 24 25 26 nan nan nan nan nan nan nan nan nan nan
nan nan nan nan nan nan nan nan nan 25 26 nan 28 nan nan nan nan nan 41 40 38 36 40 41 39 38 38 37 35 34 34 35 33 34 35 33 31 30 29 28 28 26 23 22 24 27 28 27 22 21 26 25 24 27 29 29 28 28 30 31 33 34 36 36 34 33 33 31 28 27 26 25 24 24 24 25 26 nan 27 nan nan nan nan nan nan nan
nan nan nan nan nan nan nan nan nan nan 26 27 29 26 nan 28 29 32 38 41 39 39 41 40 40 40 40 41 39 38 41 42 38 35 34 31 29 29 30 28 27 24 21 21 21 21 25 26 25 25 26 26 26 27 30 31 28 28 32 34 34 37 39 39 35 35 34 31 29 28 27 26 26 25 25 25 nan nan nan nan nan nan nan nan nan nan
nan nan nan nan nan nan nan nan 22 24 22 25 26 24 23 24 24 26 30 36 41 40 40 41 42 41 40 42 42 42 41 42 39 36 35 33 30 32 34 35 34 31 27 24 23 23 24 26 26 27 27 27 27 27 28 30 29 28 30 32 33 35 36 36 35 35 34 31 30 29 28 29 29 28 nan nan nan nan nan nan nan nan nan nan nan nan
nan 26 24 nan nan nan nan 20 21 22 20 20 22 24 23 24 25 23 24 29 33 37 37 40 42 44 42 43 44 44 43 39 38 36 37 36 33 31 33 35 37 35 32 30 27 27 26 27 28 28 29 28 29 30 29 28 31 33 32 29 30 32 33 35 34 nan 30 29 30 30 30 32 32 nan nan nan nan nan nan nan nan nan nan nan nan nan
nan nan nan nan nan 22 24 23 22 25 24 25 24 23 25 25 26 27 28 28 30 30 31 35 38 41 43 43 45 42 41 40 41 40 40 40 37 33 34 38 41 41 39 36 34 32 32 32 32 32 32 31 30 31 30 28 27 28 27 28 26 24 nan 28 28 nan 24 26 30 32 34 34 32 nan nan nan nan nan nan nan nan nan nan nan nan nan
nan nan nan 21 nan nan 20 21 26 24 23 25 22 20 21 23 23 23 26 27 26 29 32 35 36 38 38 39 38 36 35 34 35 35 34 35 34 33 33 36 37 37 35 33 33 35 36 35 35 35 36 36 33 34 34 34 33 30 28 29 29 27 nan nan 26 nan 23 26 30 33 33 32 nan nan nan nan nan nan nan nan nan nan nan nan nan nan
nan nan nan nan nan 18 15 16 18 20 nan 23 23 23 22 21 22 23 23 24 27 28 29 30 31 34 35 33 32 30 30 28 27 26 26 27 30 31 33 34 35 36 35 34 34 37 38 37 36 36 37 37 37 38 37 38 nan nan 34 33 32 nan nan 28 26 25 25 27 29 29 nan nan nan nan nan nan nan nan nan nan nan nan nan nan nan nan
13 nan nan nan nan 17 nan nan 16 18 25 27 25 23 21 19 19 21 23 26 29 32 32 31 31 29 29 29 28 28 28 26 25 24 26 27 28 29 30 31 31 32 34 33 34 36 37 37 37 37 38 38 39 39 37 36 nan 35 35 35 nan nan nan 30 28 28 28 27 28 nan nan nan nan nan nan nan nan nan nan nan nan nan nan nan nan nan
nan nan nan nan nan nan nan 13 16 nan nan nan nan nan nan nan nan nan nan nan nan nan nan 30 30 29 28 27 nan 25 25 26 27 27 26 26 26 27 29 29 28 29 31 33 34 35 36 36 36 35 35 35 37 39 39 nan 36 nan 34 34 31 30 30 29 29 29 28 27 28 nan nan nan nan nan nan nan nan nan nan nan nan nan nan nan nan nan
nan nan nan nan nan nan nan nan 13 nan nan nan nan nan nan nan nan nan nan nan nan nan nan nan nan 28 28 25 nan 23 22 23 23 26 28 27 27 27 27 27 27 27 29 31 34 34 34 32 33 36 nan nan 36 36 37 36 nan 36 35 33 29 28 27 28 29 29 28 28 nan nan nan nan nan nan nan nan nan nan nan nan nan nan nan nan nan nan
Wind_Direction
nan nan nan nan nan nan nan nan nan nan nan nan nan nan nan nan nan nan nan nan nan nan nan nan nan nan nan nan nan nan nan nan nan nan 242 247 252 252 250 252 253 253 256 261 268 271 274 279 279 275 279 296 298 278 277 298 281 223 210 210 216 229 238 247 248 248 256 254 245 243 252 256 255 263 260 259 254 255 256 259 263 267 265 258 258 262
nan nan nan nan nan nan nan nan nan nan nan nan nan nan nan nan nan nan nan nan nan nan nan nan nan nan nan nan nan nan nan nan nan nan 246 248 247 247 254 255 255 252 252 262 263 270 271 274 280 283 292 302 309 301 289 300 307 277 251 233 230 226 235 241 242 243 247 245 246 248 252 249 255 260 264 260 256 256 255 257 261 264 260 258 260 261
nan nan nan nan nan nan nan nan nan nan nan nan nan nan nan nan nan nan nan nan nan nan nan nan nan nan nan nan nan nan nan nan nan nan 247 252 246 244 249 250 256 258 263 263 268 274 272 280 288 290 297 304 310 311 305 299 292 290 289 272 255 247 242 243 243 240 242 239 241 244 245 255 249 245 251 255 255 256 259 259 261 263 261 258 261 265
nan nan nan nan nan nan nan nan nan nan nan nan nan nan nan nan nan nan nan nan nan nan nan nan nan nan nan nan nan nan nan nan nan nan 243 253 254 252 257 258 260 264 268 273 276 279 278 286 296 301 307 311 306 308 308 312 312 308 305 284 264 262 257 251 243 242 237 240 239 240 250 248 250 256 254 251 251 252 256 260 257 257 261 261 263 266
nan nan nan nan nan nan nan nan nan nan nan nan nan nan nan nan nan nan nan nan nan nan nan nan nan nan nan nan nan nan nan nan nan nan 241 237 250 259 254 249 255 266 267 268 273 273 280 291 304 313 315 316 319 319 319 324 324 319 320 306 287 280 274 260 249 244 246 245 243 243 242 245 246 243 247 254 250 250 250 254 257 259 257 261 261 262
nan nan nan nan nan nan nan nan nan nan nan nan nan nan nan nan nan nan nan nan nan nan nan nan nan nan nan nan nan nan nan nan nan nan 251 253 255 255 258 257 249 250 260 273 282 282 283 288 294 304 316 328 329 329 327 328 330 325 317 309 296 285 276 266 252 247 250 252 252 250 252 252 247 254 258 265 269 259 257 259 251 249 253 260 258 257
nan nan nan nan nan nan nan nan nan nan nan nan nan nan nan nan nan nan nan nan nan nan nan nan nan nan nan nan nan nan nan nan 233 nan 255 257 262 266 265 259 255 259 261 260 265 272 281 290 299 311 330 342 340 339 328 327 331 327 316 310 305 295 280 264 252 247 246 250 253 256 255 255 256 260 249 247 250 259 250 245 251 254 260 265 264 256
nan nan nan nan nan nan nan nan nan nan nan nan nan nan nan nan nan nan nan nan nan nan nan nan nan nan nan nan nan nan nan nan 236 240 253 258 266 273 272 264 263 264 274 276 281 290 297 299 313 336 346 341 348 335 327 329 329 330 324 316 311 294 278 264 255 244 243 254 257 256 251 249 250 254 256 253 254 250 249 248 244 253 256 259 260 260
nan nan nan nan nan nan nan nan nan nan nan nan nan nan nan nan nan nan nan nan nan nan nan nan nan nan nan nan nan nan nan nan 234 244 253 260 271 280 281 273 276 275 277 278 283 297 303 306 332 343 339 344 333 326 329 330 326 320 312 308 303 290 272 262 261 248 244 254 261 262 257 250 240 243 247 250 250 251 250 248 244 250 252 255 255 254
nan nan nan nan nan nan nan nan nan nan nan nan nan nan nan nan nan nan nan nan nan nan nan nan nan nan nan nan nan nan nan nan 235 240 250 258 269 273 270 261 266 262 263 272 287 293 291 303 332 339 330 320 326 322 316 312 309 309 306 300 289 276 263 258 257 249 246 250 257 260 256 251 244 243 244 249 254 251 251 251 248 250 252 256 257 252
nan nan nan nan nan nan nan nan nan nan nan nan nan nan nan nan nan nan nan nan nan nan nan nan nan nan nan nan nan nan nan nan 234 226 230 239 248 253 256 258 266 272 276 282 288 282 280 303 326 306 314 323 303 303 310 312 311 308 308 299 281 261 250 250 252 253 249 245 249 253 252 252 252 249 252 252 249 248 248 251 250 252 252 253 258 255
nan nan nan nan nan nan nan nan nan nan nan nan nan nan nan nan nan nan nan nan nan nan nan nan nan nan nan nan nan nan nan nan 248 248 257 260 265 269 271 272 270 274 278 279 290 296 293 308 304 294 303 297 301 305 310 311 314 311 307 302 284 265 257 246 245 251 244 236 236 242 250 252 251 253 252 256 258 256 256 256 254 251 252 250 249 250
nan nan nan nan nan nan nan nan nan nan nan nan nan nan nan nan nan nan nan nan nan nan nan nan nan nan nan nan nan nan nan nan 223 237 257 266 263 259 264 277 281 285 279 293 308 306 323 333 315 305 296 286 301 316 316 318 319 311 305 305 296 280 262 246 240 245 234 227 234 243 248 248 247 248 250 255 259 259 260 256 254 253 252 249 247 246
nan nan nan nan nan nan nan nan nan nan nan nan nan nan nan nan nan nan nan nan nan nan nan nan nan nan nan nan nan nan nan 228 228 226 240 257 267 269 270 272 271 274 286 301 301 317 350 352 334 303 287 287 299 309 315 318 318 311 304 301 305 296 259 236 230 229 225 224 232 238 243 246 246 243 246 251 259 259 257 254 253 252 251 249 248 249
nan nan nan nan nan nan nan nan nan nan nan nan nan nan nan nan nan nan nan nan nan nan nan nan nan nan nan nan nan nan nan 230 230 227 225 228 231 238 245 249 253 258 273 278 281 336 356 359 341 305 280 275 290 302 307 309 308 304 303 299 299 300 275 238 224 218 221 224 226 229 237 243 240 241 242 245 250 258 259 252 253 251 247 247 245 245
nan nan nan nan nan nan nan nan nan nan nan nan nan nan nan nan nan nan nan nan nan nan nan nan nan nan nan nan nan nan nan 229 236 239 240 237 237 238 237 250 264 269 269 260 247 54 350 335 330 307 276 267 273 289 292 298 293 290 300 299 294 295 280 242 224 217 221 223 225 231 239 239 236 234 238 242 245 247 251 254 255 253 247 245 245 235
nan nan nan nan nan nan nan nan nan nan nan nan nan nan nan nan nan nan nan nan nan nan nan nan nan nan nan nan nan nan nan 229 240 245 249 243 239 242 250 256 254 247 245 248 245 270 305 305 320 311 279 260 260 272 278 280 278 275 287 290 288 285 270 240 219 223 223 227 232 236 239 238 236 238 243 247 250 250 249 252 251 250 245 242 238 234
nan nan nan nan nan nan nan nan nan nan nan nan nan nan nan nan nan nan nan nan nan nan nan nan nan nan nan nan nan nan nan 225 241 245 247 245 244 249 254 253 235 219 226 235 228 228 268 298 318 312 278 254 249 256 255 254 249 246 261 280 291 286 279 254 232 229 231 236 238 239 236 232 234 238 241 246 252 253 256 251 244 241 239 236 233 232
nan nan nan nan nan nan nan nan nan nan nan nan nan nan nan nan nan nan nan nan nan nan nan nan nan nan nan nan nan nan 226 222 235 243 248 249 244 239 229 219 207 206 220 234 259 291 316 310 306 301 274 252 245 242 239 237 239 239 242 259 274 278 267 261 241 235 231 234 236 234 233 233 233 237 244 249 255 258 260 252 239 236 235 230 228 234
nan nan nan nan nan nan nan nan nan nan nan nan nan nan nan nan nan nan nan nan nan nan nan nan nan nan nan nan nan nan 229 228 227 235 253 278 265 242 229 228 233 244 253 260 284 342 302 287 290 284 262 253 248 240 235 240 241 248 245 250 258 258 257 259 251 233 229 232 234 230 226 226 233 242 251 259 264 261 259 249 237 236 237 234 232 234
nan nan nan nan nan nan nan nan nan nan nan nan nan nan nan nan nan nan nan nan nan nan nan nan nan nan nan nan nan nan 237 235 240 240 246 252 240 230 238 250 258 264 265 264 280 287 278 277 277 257 241 238 235 228 227 235 245 245 244 246 261 270 272 270 259 252 243 232 231 231 230 233 237 246 253 260 262 261 258 247 231 229 235 235 234 237
nan nan nan nan nan nan nan nan nan nan nan nan nan nan nan nan nan nan nan nan nan nan nan nan nan nan nan nan nan nan nan 239 237 245 247 251 254 254 249 247 247 254 251 236 222 238 260 269 266 243 232 232 234 233 233 236 239 244 247 247 258 264 263 266 260 247 234 227 226 232 233 237 241 250 256 263 262 259 254 245 235 232 229 229 231 244
nan nan nan nan nan nan nan nan nan nan nan nan nan nan nan nan nan nan nan nan nan nan nan nan nan nan nan 219 217 214 nan 232 234 231 231 239 253 260 265 254 234 225 226 224 225 239 251 255 248 235 234 236 239 239 240 240 241 243 246 247 246 250 246 242 238 241 231 224 228 236 239 244 249 255 260 261 256 252 248 243 235 225 226 230 244 245
nan nan nan nan nan nan nan nan nan nan nan nan nan nan nan nan nan nan nan nan nan nan nan nan nan nan nan 223 219 218 220 225 220 217 217 223 234 249 253 249 240 237 233 228 225 227 234 240 239 236 237 236 237 243 246 243 243 243 240 238 233 228 224 223 220 228 231 229 235 243 246 249 252 257 256 254 247 245 237 235 228 225 234 247 254 251
nan nan nan nan nan nan nan nan nan nan nan nan nan nan nan nan nan nan nan nan nan nan nan nan nan nan 222 226 223 224 226 224 222 216 218 212 215 226 233 229 230 234 238 236 230 229 238 252 255 246 239 234 232 241 249 251 248 245 242 245 252 258 251 240 218 232 239 244 247 247 250 253 255 256 249 244 242 243 239 236 235 237 247 253 251 247
nan nan nan nan nan nan nan nan nan nan nan nan nan nan nan nan nan nan nan nan nan nan nan nan nan nan 216 222 226 228 231 227 227 228 224 221 221 226 225 231 235 238 244 244 238 239 249 254 255 253 240 232 231 245 257 257 252 248 248 259 269 262 247 243 244 245 246 248 252 251 254 254 255 254 249 246 246 248 248 246 245 247 245 249 248 nan
nan nan nan nan nan nan nan nan nan nan nan nan nan nan nan nan nan nan nan nan nan nan nan nan nan 219 214 218 219 220 227 229 230 231 233 230 223 224 226 227 232 237 244 250 249 245 248 256 265 265 251 242 246 253 268 267 260 257 258 264 269 261 247 247 250 249 248 248 252 253 254 254 254 253 248 246 247 246 247 249 251 252 249 243 242 nan
nan nan nan nan nan nan nan nan nan nan nan nan nan nan nan nan nan nan nan nan nan nan nan nan 210 210 196 200 201 207 212 218 221 227 229 226 222 223 229 231 232 234 236 242 249 256 259 264 271 273 268 263 268 273 278 277 267 264 267 269 266 259 252 249 253 250 248 247 246 249 251 250 251 250 246 242 241 241 244 248 249 248 244 242 nan nan
nan nan nan nan nan nan nan nan nan nan nan nan nan nan nan nan nan nan nan nan nan nan nan nan 216 213 199 199 204 212 206 198 205 211 214 215 215 221 229 233 234 237 242 248 253 257 264 272 279 284 284 282 286 292 293 286 274 264 263 263 261 257 254 252 251 250 249 245 246 246 247 247 244 241 238 237 237 239 243 246 247 244 242 nan nan nan
nan nan nan nan nan nan nan nan nan nan nan nan nan nan nan nan nan nan nan nan nan nan nan 221 228 218 212 205 208 215 212 211 205 204 210 214 215 220 225 228 230 235 243 253 262 267 270 275 277 278 278 279 287 290 284 275 268 264 264 263 262 258 254 253 252 253 251 249 248 248 246 244 242 241 238 236 238 243 249 250 249 247 nan nan nan nan
nan nan nan nan nan nan nan nan nan nan nan nan nan nan nan nan nan nan nan nan nan nan nan 215 225 218 nan 210 205 210 217 214 207 206 207 211 214 219 225 228 232 238 243 250 255 256 261 266 268 269 274 277 277 271 269 264 256 253 253 255 257 256 253 254 254 253 254 253 253 255 250 244 242 242 241 235 236 242 250 252 251 254 nan nan nan nan
nan nan nan nan nan nan nan nan nan nan nan 200 193 191 nan nan nan nan nan nan nan nan nan nan 220 nan nan 210 210 210 209 208 204 205 210 214 216 222 226 229 234 238 245 251 256 260 266 270 274 278 280 280 277 271 267 261 247 243 246 249 253 253 251 252 255 256 254 255 257 259 256 246 243 243 241 240 242 246 249 253 259 263 nan nan nan nan
nan nan nan nan nan nan nan nan nan nan nan nan nan nan 188 nan nan nan nan nan nan nan nan nan nan nan 218 218 220 208 201 195 197 201 213 216 220 230 231 232 233 237 243 249 253 259 264 271 280 288 287 282 278 275 276 269 255 247 243 243 246 247 249 251 255 256 255 256 260 261 255 248 245 244 243 245 247 249 253 258 263 266 265 nan nan nan
nan nan nan nan nan nan nan nan nan nan nan 197 nan 195 198 nan nan nan 207 206 206 nan nan nan nan 214 226 228 233 218 206 196 194 194 200 220 235 234 240 245 249 248 250 253 258 259 260 262 271 282 285 279 269 260 259 261 258 247 241 239 241 246 244 247 251 255 255 257 261 260 251 243 242 244 247 251 254 256 260 263 265 263 nan nan nan nan
nan nan nan nan nan nan nan nan nan nan 199 197 193 192 198 207 214 218 211 207 202 205 206 nan 215 223 225 228 229 226 216 205 206 201 205 212 223 236 244 241 241 247 252 255 256 259 267 271 265 252 241 242 252 254 253 250 249 244 240 239 239 239 240 241 248 251 255 259 258 252 243 239 242 248 252 257 259 260 261 263 263 nan nan nan nan nan
nan nan nan nan nan nan nan nan nan nan 200 nan nan 201 206 211 nan nan 203 204 204 202 202 206 208 216 212 223 228 230 230 222 212 209 209 216 226 239 244 243 246 246 254 254 262 258 252 238 231 230 229 233 251 258 259 256 254 250 240 235 235 231 233 237 242 244 249 256 254 248 244 248 250 253 255 258 259 259 260 261 nan nan nan nan nan nan
nan nan nan nan nan nan nan nan nan nan nan 200 nan nan 207 205 201 205 206 202 208 204 206 204 207 216 215 216 234 235 232 221 217 211 212 217 224 224 231 239 244 243 240 233 226 224 227 233 233 229 237 253 266 268 261 257 256 251 241 232 229 231 231 235 238 239 245 251 249 247 248 250 252 253 255 257 260 nan 256 256 nan nan nan nan nan nan
nan nan nan nan nan nan nan nan nan nan nan nan nan nan 204 204 206 nan nan 205 207 209 210 210 212 217 219 219 231 239 235 230 222 211 214 217 225 230 233 236 235 235 231 227 227 237 247 255 259 258 260 267 266 255 244 243 245 245 239 229 224 228 231 236 240 240 244 248 248 248 249 250 252 255 259 263 267 262 252 nan nan nan nan nan nan nan
nan nan nan nan nan nan nan nan nan nan nan nan 193 194 198 209 nan 213 nan 207 209 209 208 209 213 219 222 230 231 234 241 241 230 220 219 222 224 228 235 234 238 237 231 230 235 246 263 273 265 252 244 239 243 243 245 241 241 238 231 222 219 224 234 235 235 236 238 239 239 242 245 247 248 250 252 256 258 254 249 nan nan nan nan nan nan nan
nan nan nan nan nan nan nan nan nan nan nan 199 195 197 201 208 nan nan nan 208 208 207 210 211 213 220 223 225 230 233 244 251 239 229 226 225 228 227 235 246 249 245 238 236 238 249 270 276 256 245 242 241 237 242 246 239 235 236 232 228 231 237 237 233 228 226 232 238 240 239 240 244 247 nan nan 254 256 nan nan nan nan nan nan nan nan nan
nan nan nan nan nan nan nan nan nan nan 200 199 197 194 199 208 nan nan nan 211 212 208 213 216 214 218 223 227 230 238 237 244 242 240 241 238 238 239 239 236 235 235 237 237 240 242 250 253 249 250 256 240 237 240 243 244 242 234 228 231 229 230 234 237 236 237 237 237 238 240 242 241 244 248 250 257 nan nan nan nan nan nan nan nan nan nan
nan nan nan nan nan nan nan nan nan 206 203 nan 196 nan nan nan nan nan 216 219 219 214 218 219 220 221 226 229 227 231 234 240 247 251 251 248 246 246 248 246 239 232 229 236 247 251 251 254 260 250 236 234 236 237 239 243 243 235 230 228 226 226 230 232 229 231 235 238 240 240 240 240 241 244 246 252 255 nan 250 nan nan nan nan nan nan nan
nan nan nan nan nan nan nan nan nan nan 209 211 190 207 nan 221 218 219 216 218 222 220 219 222 226 224 231 233 231 235 239 243 247 251 253 253 250 246 245 242 239 239 244 246 244 241 253 256 258 252 249 241 237 240 247 254 254 245 236 235 232 227 225 227 227 226 228 234 239 240 238 239 242 241 244 250 nan nan nan nan nan nan nan nan nan nan
nan nan nan nan nan nan nan nan 217 216 207 202 211 223 210 217 214 215 221 215 221 226 224 223 227 230 232 240 243 241 242 247 246 249 252 251 242 232 231 231 231 234 238 240 243 244 243 246 247 248 246 245 243 245 250 257 254 247 246 248 245 244 237 231 231 235 233 229 233 236 236 238 238 239 nan nan nan nan nan nan nan nan nan nan nan nan
nan 207 209 nan nan nan nan 217 215 213 212 209 219 218 216 213 217 224 225 224 223 224 230 232 227 226 233 240 240 244 246 246 250 253 259 258 251 245 243 241 240 243 249 252 247 239 237 246 249 247 246 243 244 244 247 245 251 247 244 240 245 246 240 234 235 nan 242 238 235 235 234 236 238 nan nan nan nan nan nan nan nan nan nan nan nan nan
nan nan nan nan nan 216 220 222 218 218 218 215 220 221 222 218 218 222 223 221 218 222 227 232 233 234 237 240 248 245 246 251 256 258 260 259 255 249 246 241 235 236 239 238 234 235 237 237 242 247 248 242 241 242 241 248 256 256 242 239 244 247 nan 239 239 nan 240 237 234 233 236 241 245 nan nan nan nan nan nan nan nan nan nan nan nan nan
nan nan nan 222 nan nan 215 206 218 218 218 217 217 217 222 222 218 217 221 219 215 217 219 222 226 230 235 239 241 248 250 252 254 254 254 253 250 248 244 240 235 237 240 237 232 234 238 242 242 244 244 241 236 236 234 234 230 233 234 234 236 238 nan nan 240 nan 236 233 232 234 238 245 nan nan nan nan nan nan nan nan nan nan nan nan nan nan
nan nan nan nan nan 209 209 217 219 218 nan 214 215 216 214 209 213 216 220 219 217 217 222 222 224 226 228 233 235 243 244 244 247 248 247 246 245 244 242 238 236 233 230 229 229 234 239 242 244 246 246 243 239 239 238 234 nan nan 223 219 227 nan nan 241 244 244 237 232 230 233 nan nan nan nan nan nan nan nan nan nan nan nan nan nan nan nan
175 nan nan nan nan 203 nan nan 207 210 215 210 210 215 213 213 217 218 219 220 218 217 214 217 225 228 232 232 230 236 241 238 239 241 242 239 241 242 242 240 238 237 235 233 231 237 242 243 242 243 245 243 241 243 244 247 nan 242 230 223 nan nan nan 239 237 235 233 230 232 nan nan nan nan nan nan nan nan nan nan nan nan nan nan nan nan nan
nan nan nan nan nan nan nan 203 210 nan nan nan nan nan nan nan nan nan nan nan nan nan nan 220 217 221 228 233 nan 236 239 238 236 236 237 241 245 244 242 242 240 240 238 234 234 240 246 247 248 250 253 249 243 242 241 nan 237 nan 243 234 224 227 232 234 233 233 231 233 237 nan nan nan nan nan nan nan nan nan nan nan nan nan nan nan nan nan
nan nan nan nan nan nan nan nan 206 nan nan nan nan nan nan nan nan nan nan nan nan nan nan nan nan 221 220 221 nan 241 244 244 242 240 237 236 238 239 241 243 245 242 241 238 238 240 246 247 244 241 nan nan 248 246 245 244 nan 237 230 229 229 232 233 233 231 230 233 237 nan nan nan nan nan nan nan nan nan nan nan nan nan nan nan nan nan nan